Location: Newark
(42.6681°N, 4.0833°W)
Time: 23:20:51
(UTC+00:00)

X-37B - Pass Details

Date: 01 October 2020
Orbit: 382 x 392 km, 45.0° (Epoch: 15 October)

Event Time Altitude Azimuth Distance (km) Brightness Sun altitude
Rises 20:04:04 0° 234° (SW) 2,253 4.9 -23.9°
Reaches altitude 10° 20:06:10 10° 227° (SW) 1,401 3.7 -24.3°
Enters shadow 20:06:30 12° 225° (SW) 1,271 3.5 -24.3°
